"Pseudo-MPEC" for 2007-004G = NORAD 30799 = Themis booster

Created 2018 Apr 23 13:37:06 UT using Find_Orb

Click here for an explanation of pseudo-MPECs

Most of the THEMIS satellites are still active. THEMIS B and C are (as of 2018 March) near the Moon; A, D, and E are still orbiting the Earth in roughly similar orbits. THEMIS-D, THEMIS-E, and THEMIS-G (the booster for this mission) have all been tracked at one time or another. Click here for real-time updates on their status.

 
 Astrometry: 
2007-004G    tC2017 01 29.32253 10 02 46.46 +02 58 11.6         x14.6 Rq     Y00
2007-004G    tC2017 01 29.32461 10 03 12.71 +02 59 58.9         x14.6 Rq     Y00
2007-004G    tC2017 01 29.32640 10 03 35.35 +03 01 31.3         x14.6 Rq     Y00
2007-004G     C2017 01 30.10725 08 47 37.56 -00 36 54.7         x15.2 Rq     Y00
2007-004G     C2017 01 30.10897 08 47 45.88 -00 36 24.0         x15.3 Rq     Y00
2007-004G     C2017 01 30.10998 08 47 50.76 -00 36 06.1         x15.2 Rq     Y00
2007-004G     C2017 02 23.09954 09 08 44.57 +00 36 12.1         x14.9 RqD0555Y00
2007-004G     C2017 02 23.10069 09 08 50.00 +00 36 36.3         x14.9 RqD0555Y00
2007-004G     C2017 02 23.10187 09 08 55.57 +00 37 00.8         x14.9 RqD0555Y00
2007-004G     C2017 02 23.35901 09 51 07.90 -01 46 29.6         x14.9 VqD0555G96
2007-004G     C2017 02 23.36327 09 51 40.20 -01 45 12.4         x14.3 VqD0555G96
2007-004G     C2017 02 23.37184 09 52 46.74 -01 42 36.7         x14.4 VqD0555G96
2007-004G     C2017 02 23.38933 09 55 09.71 -01 37 18.4         x14.4 VqD0555G96
2007-004G     C2017 02 23.38944 09 55 10.66 -01 37 16.1         x14.5 VqD0555G96
2007-004G     C2017 02 23.38956 09 55 11.67 -01 37 14.4         x14.4 VqD0555G96
2007-004G     C2017 02 23.38968 09 55 12.62 -01 37 12.1         x14.4 VqD0555G96
2007-004G     C2017 02 23.39542 09 56 02.04 -01 35 28.0         x14.3 VqD0555I52
2007-004G     C2017 02 23.39552 09 56 02.91 -01 35 26.1         x14.3 VqD0555I52
2007-004G     C2017 02 23.39562 09 56 03.85 -01 35 24.3         x14.3 VqD0555I52
2007-004G     C2017 02 23.39573 09 56 04.74 -01 35 22.8         x14.2 VqD0555I52
2007-004G     C2017 02 23.45725 10 06 29.84 -01 17 05.3         x14.1 VqD0555I52
2007-004G     C2017 02 23.45735 10 06 31.05 -01 17 03.5         x14.2 VqD0555I52
2007-004G     C2017 02 23.45746 10 06 32.27 -01 17 01.7         x14.2 VqD0555I52
2007-004G     C2017 02 23.45756 10 06 33.50 -01 16 59.9         x14.2 VqD0555I52
2007-004G     C2017 02 24.00658 08 04 44.69 -01 21 12.3         x14.9 RqD0555Y00
2007-004G     C2017 02 24.00755 08 04 54.41 -01 20 52.0         x14.8 RqD0555Y00
2007-004G     C2017 02 24.00856 08 05 04.48 -01 20 30.4         x14.8 RqD0555Y00
2007-004G     C2017 03 14.07707 09 33 40.33 +01 54 54.9         x14.5 RqD0555Y00
2007-004G     C2017 03 14.07814 09 33 45.66 +01 55 20.8         x14.5 RqD0555Y00
2007-004G     C2017 03 14.07920 09 33 51.10 +01 55 47.2         x14.6 RqD0555Y00
2007-004G     C2017 03 23.99284 09 16 37.69 +01 17 07.0         x15.9 RqD0555Y00
2007-004G     C2017 03 23.99396 09 16 43.07 +01 17 30.5         x15.9 RqD0555Y00
2007-004G     C2017 03 23.99570 09 16 51.56 +01 18 09.2         x15.7 RqD0555Y00
2007-004G     C2017 03 29.20707 09 47 45.55 -01 14 00.2         x14.6 V D0555703
2007-004G     C2017 03 29.21243 09 48 17.00 -01 12 12.3         x14.6 V D0555703
2007-004G     C2017 03 29.22309 09 49 20.13 -01 08 38.7         x14.6 V D0555703
2007-004G     C2017 03 29.23135 09 50 09.86 -01 05 54.3         x14.4 V D0555703
2007-004G     C2017 03 29.23668 09 50 42.55 -01 04 08.3         x14.5 V D0555703
2007-004G     C2017 03 29.24734 09 51 48.76 -01 00 37.3         x14.5 V D0555703
2007-004G     C2017 12 24.52695 10 58 15.07 +05 53 11.7         x17.3 GU     G96
2007-004G     C2017 12 24.53216 10 58 46.43 +05 54 45.9         x17.3 GU     G96
2007-004G     C2017 12 24.53734 10 59 17.75 +05 56 17.4         x16.9 GU     G96
2007-004G     C2018 02 06.44053 10 47 42.87 +06 02 42.7          15.0 GU     703
2007-004G     C2018 02 06.44564 10 48 24.99 +06 04 41.2          14.9 GU     703
2007-004G     C2018 02 06.45076 10 49 07.46 +06 06 36.0          14.3 GU     703
2007-004G     C2018 02 06.45804 10 50 07.64 +06 09 13.2          14.3 GU     703
2007-004G     C2018 02 06.46305 10 50 49.04 +06 10 56.7          14.4 GU     703
2007-004G     C2018 02 06.46807 10 51 30.07 +06 12 36.2          14.9 GU     703
2007-004G     C2018 02 06.47307 10 52 11.45 +06 14 13.0          14.4 GU     703
     ZG34DC5  C2018 04 08.31666 12 46 41.42 +07 52 34.6          14.4 GU     703
     ZG34DC5  C2018 04 08.32189 12 47 20.03 +07 51 42.3          14.4 GU     703
     ZG34DC5  C2018 04 08.32711 12 47 59.27 +07 50 47.0          14.4 GU     703
     ZG34DC5  C2018 04 08.33234 12 48 39.08 +07 49 47.0          14.8 GU     703
     ZG36A51  C2018 04 08.45917 13 09 48.50 +07 00 39.7          13.9 GU     703
     ZG36A51  C2018 04 08.45986 13 09 57.68 +07 00 14.0          13.9 GU     703
     ZG36A51  C2018 04 08.46082 13 10 10.66 +06 59 37.8          13.9 GU     703
     ZG36A51  C2018 04 08.46099 13 10 13.09 +06 59 30.8          13.9 GU     703
      30799U  C2018 04 14.28793 11 48 57.36 +07 52 39.0          14.8 GU     703
      30799U  C2018 04 14.29367 11 49 32.57 +07 53 00.5          14.8 GU     703
      30799U  C2018 04 14.29940 11 50 07.79 +07 53 15.9          14.8 GU     703
      30799U  C2018 04 14.30514 11 50 43.38 +07 53 30.2          14.8 GU     703
     ZH02CDD  C2018 04 18.27813 12 30 58.69 +08 00 45.8          14.7 GU     703
     ZH02CDD  C2018 04 18.29592 12 32 48.19 +07 59 04.2          14.7 GU     703
     A106IND  C2018 04 18dtAstrometryA+L3Jredacted;\:23r0Dt=M*j15mwhTX]4:!/[`T05
     A106IND  C2018 04 18[Heqcw+5a)cY0m#%ls[j5y#=2xaHGsdWseeXS?a=xLd!RiHNEOCPT05
2007-004G    tC2018 04 19.01416 10 42 32.21 +11 45 55.5          15.2 Rq     Y00
2007-004G    tC2018 04 19.01514 10 42 46.13 +11 45 50.2          15.2 Rq     Y00
2007-004G    tC2018 04 19.01606 10 42 59.02 +11 45 46.1          15.3 Rq     Y00
     ZH09F65  C2018 04 23.21942 12 19 57.45 +08 03 55.6          14.9 GU     703
     ZH09F65  C2018 04 23.22474 12 20 27.56 +08 03 59.9          14.9 GU     703
     ZH09F65  C2018 04 23.23006 12 20 57.79 +08 04 01.6          14.9 GU     703
     ZH09F65  C2018 04 23.23538 12 21 27.89 +08 04 00.5                U     703

Station data:
(703) Catalina Sky Survey  (N32.417006 W110.732640)  US/Arizona.  Observers
   D. C. Fuls, B. M. Africano, A. R. Gibbs, J. A. Johnson. Measurers E. J.
   Christensen, D. C. Fuls, A. R. Gibbs, A. D. Grauer, J. A. Johnson, R. A.
   Kowalski, S. M. Larson, G. J. Leonard, R. G. Matheny, R. L. Seaman, F. C.
   Shelly, B. M. Africano. 0.68-m Schmidt + 10K CCD.
(G96) Mt. Lemmon Survey  (N32.442754 W110.788720)  US/Arizona.  Observers D.
   C. Fuls, G. J. Leonard. Measurers E. J. Christensen, D. C. Fuls, A. R.
   Gibbs, A. D. Grauer, J. A. Johnson, R. A. Kowalski, S. M. Larson, G. J.
   Leonard, R. G. Matheny, R. L. Seaman, F. C. Shelly. 1.5-m reflector + 10K
   CCD.
(I52) Steward Observatory, Mt. Lemmon Station  (N32.442547 W110.788920)
   US/Arizona.
(T05) ATLAS-HKO, Haleakala  (N20.707573 W156.257010)  US/Hawaii.  Observers
   L. Denneau, A. Heinze, H. Weiland, B. Stalder, J. Tonry, A. Sherstyuk.
   Measurers L. Denneau, A. Heinze, J. Tonry. 0.5-m f/2.0 Schmidt + CCD.
(Y00) SONEAR Observatory, Oliveira  (S20.715082 W44.784960)  Brazil.
   Observers C. Jacques, E. Pimentel, J. Barros. Measurer C. Jacques. 0.28-m
   f/2.2 astrograph + CCD.

Orbital elements:  2007-004G = NORAD 30799 = Themis booster
   Perigee 2018 Apr 1.164829 +/- 1.86e-5 TT =  3:57:21 (JD 2458209.664829)
Epoch 2018 Apr  1.0 TT; AMR 0.014845 +/- 0.00367 m2/kg       Gray
M 312.83887 +/- 0.0053              (J2000 equator)
n 286.12197147 +/- 4.74e-5          Peri.  260.04647 +/- 0.0010
a 49230.7025 +/- 0.00544            Node   100.72579 +/- 0.00022
e   0.8576203 +/- 3.3e-6            Incl.    9.72671 +/- 0.00027
P1811.78m/1.258d           H 30.3   G  0.15   U  6.1
q 7009.45088 +/- 0.162    Q 91451.9542 +/- 0.166
30 of 72 observations 2018 Feb. 6-Apr. 23; mean residual 2".113
Residuals in arcseconds: 
170129 Y00( 682+  144+)   170224 Y00( 729+ 66.8+)   180206 703 2.57+ .263+
170129 Y00( 689+  147+)   170224 Y00( 727+ 66.2+)   180408 703 3.53- 0.99-
170129 Y00( 691+  149+)   170224 Y00( 724+ 66.2+)   180408 703 5.27- 1.00-
170130 Y00( 434+ 55.8+)   170314 Y00( 485+ 80.3+)   180408 703 4.44- .231-
170130 Y00( 434+ 55.6+)   170314 Y00( 483+ 79.9+)   180408 703 4.75- .110-
170130 Y00( 434+ 55.4+)   170314 Y00( 484+ 80.3+)   180408 703 1.35- .572-
170223 Y00( 452+ 66.3+)   170323 Y00( 479+ 72.3+)   180408 703 2.90- .296-
170223 Y00( 452+ 66.3+)   170323 Y00( 477+ 71.2+)   180408 703 2.84- .121-
170223 Y00( 452+ 65.8+)   170323 Y00( 478+ 71.7+)   180408 703 .985- .651-
170223 G96( 548+ 57.8+)   170329 703( 490+ 65.4+)   180414 703 2.76- .965+
170223 G96( 552+ 57.4+)   170329 703( 493+ 65.7+)   180414 703 2.22- 2.08+
170223 G96( 559+ 56.9+)   170329 703( 497+ 65.8+)   180414 703 3.31- .441+
170223 G96( 572+ 56.6+)   170329 703( 500+ 65.4+)   180414 703 3.04- .951+
170223 G96( 572+ 56.9+)   170329 703( 504+ 65.2+)   180418 703 .241- .173-
170223 G96( 572+ 56.5+)   170329 703( 508+ 64.6+)   180418 703 1.27+ .002+
170223 G96( 571+ 56.6+)   171224 G96(53.0+ 9.66+)   180418 T05 5.49+ .038-
170223 I52( 576+ 56.3+)   171224 G96(41.7+ 7.02+)   180418 T05 1.59+ .391+
170223 I52( 576+ 56.4+)   171224 G96(32.7+ 4.98+)   180419 Y00 .578- .226+
170223 I52( 577+ 56.4+)   180206 703 2.28+ .081+    180419 Y00 .159- .341-
170223 I52( 576+ 55.9+)   180206 703 1.91- .139-    180419 Y00 1.52- .051+
170223 I52( 648+ 53.7+)   180206 703 .193- .273-    180423 703 3.81+ .176-
170223 I52( 648+ 53.7+)   180206 703 1.57+ .220+    180423 703 3.13+ .277-
170223 I52( 647+ 53.6+)   180206 703 3.60+ .318+    180423 703 4.37+ .116-
170223 I52( 648+ 53.7+)   180206 703 .744- .267-    180423 703 3.37+ .119+

Ephemerides (geocentric):
